Болниси

Грузия     41°26′56″N   44°32′11″E
темп.,
°C
ветер,
м/с
пор.,
м/с
влажн.,
%
обл.,
%
осадки,
мм/ч
давл.,
гПа
погр.,
м
14 июня, пн
пн1401:00+12сз33790 0.0 101327
04:00+12сз33750 0.0 101323
07:00+15зсз22700 0.0 101356
10:00+22вюв11490 0.0 1011543
13:00+25вюв33421 0.0 10111061
16:00+27вюв333728 0.0 10091256
19:00+25вюв24514 0.0 1009214
22:00+19сз22630 0.1 101016
15 июня, вт
вт1501:00+17сз22710 0.1 101118
04:00+14ссз228512 0.4 101215
07:00+16зсз349091 0.7 1014152
10:00+20в227144 1.1 1012753
13:00+24вюв22544 0.0 10101036
16:00+27вюв224658 0.0 1008932
19:00+26ю11530 0.0 1007298
22:00+20зсз33690 0.0 100926
16 июня, ср
ср1601:00+19зсз33670 0.0 100927
04:00+18зсз22710 0.0 101017
07:00+20сз11690 0.0 101184
10:00+24в34550 0.0 1011929
13:00+27вюв44450 0.0 10091570
16:00+29в33390 0.0 10081619
19:00+27вюв35470 0.0 1008504
22:00+21сз22594 0.0 100919
17 июня, чт
чт1701:00+20сз22570 0.0 100822
04:00+19сз22540 0.0 100917
07:00+21сз22610 0.0 100954
10:00+26в35380 0.0 10081302
13:00+29в34270 0.0 10071880
16:00+31в34230 0.0 10062295
19:00+27с35440 0.0 1007354
22:00+17сз45800 0.0 101276
18 июня, пт
пт1801:00+15сз44840 0.2 101368
04:00+14сз44820 0.3 101356
07:00+17сз34700 0.0 1013115
10:00+25ссз12390 0.0 1011855
13:00+30в34250 0.0 10102146
16:00+31ссв24230 0.0 10092392
19:00+29всв36290 0.0 1009397
22:00+19сз33610 0.0 101342